TimeCST,TemperatureF,Dew PointF,Humidity,Sea Level PressureIn,VisibilityMPH,Wind Direction,Wind SpeedMPH,Gust SpeedMPH,PrecipitationIn,Events,Conditions,WindDirDegrees,DateUTC
12:15 AM,32.9,32.0,96,29.99,10.0,NNW,4.6,-,N/A,,Overcast,340,2012-12-08 06:15:00
12:35 AM,32.4,32.0,99,29.99,10.0,NNW,3.5,-,N/A,,Overcast,330,2012-12-08 06:35:00
12:55 AM,32.4,32.0,99,29.99,7.0,NW,4.6,-,N/A,,Overcast,320,2012-12-08 06:55:00
1:15 AM,32.5,32.0,98,29.99,7.0,NNW,5.8,-,N/A,,Overcast,340,2012-12-08 07:15:00
1:35 AM,32.5,32.0,98,29.99,7.0,NNW,4.6,-,N/A,,Overcast,330,2012-12-08 07:35:00
1:55 AM,32.9,32.0,96,29.99,7.0,NNW,6.9,-,N/A,,Overcast,340,2012-12-08 07:55:00
2:15 AM,32.9,31.8,96,29.99,5.0,NNW,5.8,-,N/A,,Overcast,340,2012-12-08 08:15:00
2:35 AM,32.9,31.5,94,30.00,7.0,NNW,5.8,-,N/A,,Overcast,340,2012-12-08 08:35:00
2:55 AM,32.5,31.1,94,29.99,7.0,NNW,4.6,-,N/A,,Overcast,340,2012-12-08 08:55:00
3:15 AM,31.8,30.2,94,29.99,7.0,NNW,3.5,-,N/A,,Mostly Cloudy,340,2012-12-08 09:15:00
3:35 AM,29.1,28.4,97,30.00,5.0,Calm,Calm,-,N/A,,Scattered Clouds,0,2012-12-08 09:35:00
3:55 AM,30.4,29.8,98,29.99,5.0,Calm,Calm,-,N/A,,Mostly Cloudy,0,2012-12-08 09:55:00
4:15 AM,30.7,30.0,97,29.99,5.0,Calm,Calm,-,N/A,,Overcast,0,2012-12-08 10:15:00
4:35 AM,30.9,30.2,97,29.99,5.0,Calm,Calm,-,N/A,,Overcast,0,2012-12-08 10:35:00
4:55 AM,30.7,30.2,98,29.99,5.0,Calm,Calm,-,N/A,,Overcast,0,2012-12-08 10:55:00
5:15 AM,30.9,30.2,97,29.99,7.0,Calm,Calm,-,N/A,,Overcast,0,2012-12-08 11:15:00
5:35 AM,30.9,30.2,97,29.99,7.0,Calm,Calm,-,N/A,,Overcast,0,2012-12-08 11:35:00
5:55 AM,30.9,30.2,97,29.99,7.0,Calm,Calm,-,N/A,,Overcast,0,2012-12-08 11:55:00
6:15 AM,31.1,30.0,96,29.99,7.0,Calm,Calm,-,N/A,,Overcast,0,2012-12-08 12:15:00
6:35 AM,31.5,30.2,95,29.99,10.0,Calm,Calm,-,N/A,,Overcast,0,2012-12-08 12:35:00
6:55 AM,31.1,30.0,96,29.99,7.0,Calm,Calm,-,N/A,,Overcast,0,2012-12-08 12:55:00
7:15 AM,31.1,30.2,96,29.99,7.0,Calm,Calm,-,N/A,,Overcast,0,2012-12-08 13:15:00
7:35 AM,31.1,30.0,96,29.99,7.0,ENE,3.5,-,N/A,,Overcast,60,2012-12-08 13:35:00
7:55 AM,30.9,30.0,96,29.99,7.0,ENE,3.5,-,N/A,,Overcast,70,2012-12-08 13:55:00
8:15 AM,30.9,30.2,97,29.99,5.0,Calm,Calm,-,N/A,,Overcast,0,2012-12-08 14:15:00
8:35 AM,31.1,30.4,97,30.00,4.0,SE,3.5,-,N/A,,Overcast,130,2012-12-08 14:35:00
8:55 AM,31.1,30.2,96,30.00,4.0,Calm,Calm,-,N/A,,Overcast,0,2012-12-08 14:55:00
9:15 AM,31.5,30.2,95,30.00,4.0,ENE,3.5,-,N/A,,Overcast,70,2012-12-08 15:15:00
9:35 AM,31.8,30.4,94,30.00,4.0,ENE,3.5,-,N/A,,Overcast,70,2012-12-08 15:35:00
9:55 AM,32.0,29.8,92,29.99,5.0,East,3.5,-,N/A,,Overcast,90,2012-12-08 15:55:00
10:15 AM,32.0,30.0,92,30.00,5.0,SE,5.8,-,N/A,,Overcast,130,2012-12-08 16:15:00
10:35 AM,32.7,28.9,86,30.00,10.0,SSE,4.6,-,N/A,,Overcast,150,2012-12-08 16:35:00
10:55 AM,33.3,28.8,84,29.99,10.0,SE,5.8,-,N/A,,Mostly Cloudy,130,2012-12-08 16:55:00
11:15 AM,34.0,29.3,83,29.99,10.0,ESE,6.9,-,N/A,,Mostly Cloudy,120,2012-12-08 17:15:00
11:35 AM,33.8,29.5,84,29.98,7.0,SE,6.9,-,N/A,,Mostly Cloudy,140,2012-12-08 17:35:00
11:55 AM,34.9,30.2,83,29.97,7.0,SE,5.8,-,N/A,,Overcast,140,2012-12-08 17:55:00
12:15 PM,34.9,30.4,84,29.96,7.0,SSE,4.6,-,N/A,,Overcast,150,2012-12-08 18:15:00
12:35 PM,35.8,30.9,82,29.94,7.0,SE,6.9,-,N/A,,Overcast,140,2012-12-08 18:35:00
12:55 PM,35.6,30.7,82,29.92,7.0,SE,6.9,-,N/A,,Overcast,130,2012-12-08 18:55:00
1:15 PM,35.8,30.7,82,29.91,7.0,SE,8.1,-,N/A,,Mostly Cloudy,130,2012-12-08 19:15:00
1:35 PM,36.0,30.2,80,29.90,5.0,SE,10.4,-,N/A,,Haze,140,2012-12-08 19:35:00
1:55 PM,36.1,30.0,78,29.90,7.0,SE,8.1,-,N/A,,Overcast,130,2012-12-08 19:55:00
2:15 PM,37.0,30.2,76,29.89,7.0,SE,9.2,-,N/A,,Mostly Cloudy,130,2012-12-08 20:15:00
2:35 PM,37.2,29.8,75,29.89,10.0,SE,8.1,-,N/A,,Mostly Cloudy,140,2012-12-08 20:35:00
2:55 PM,37.4,29.5,73,29.88,10.0,SE,10.4,-,N/A,,Overcast,130,2012-12-08 20:55:00
3:15 PM,37.6,29.8,74,29.87,10.0,SE,9.2,-,N/A,,Overcast,130,2012-12-08 21:15:00
3:35 PM,37.8,29.8,73,29.87,10.0,SE,9.2,-,N/A,,Overcast,130,2012-12-08 21:35:00
3:55 PM,37.6,30.0,74,29.87,10.0,SE,9.2,-,N/A,,Overcast,130,2012-12-08 21:55:00
4:15 PM,37.6,30.2,75,29.87,10.0,SE,8.1,-,N/A,,Overcast,130,2012-12-08 22:15:00
4:35 PM,37.4,30.2,75,29.86,10.0,SE,8.1,-,N/A,,Overcast,130,2012-12-08 22:35:00
4:55 PM,37.4,30.2,75,29.87,10.0,ESE,6.9,-,N/A,,Overcast,120,2012-12-08 22:55:00
5:15 PM,37.4,30.2,75,29.86,10.0,ESE,6.9,-,N/A,,Overcast,120,2012-12-08 23:15:00
5:35 PM,37.6,30.6,76,29.87,10.0,East,6.9,-,N/A,,Overcast,100,2012-12-08 23:35:00
5:55 PM,37.6,30.7,76,29.87,10.0,ESE,4.6,-,N/A,,Overcast,110,2012-12-08 23:55:00
6:15 PM,37.6,30.9,77,29.87,10.0,ESE,5.8,-,N/A,,Overcast,110,2012-12-09 00:15:00
6:35 PM,37.4,30.9,77,29.87,10.0,SE,6.9,-,N/A,,Overcast,130,2012-12-09 00:35:00
6:55 PM,37.4,31.1,78,29.87,10.0,SE,8.1,-,N/A,,Overcast,130,2012-12-09 00:55:00
7:15 PM,37.9,30.9,76,29.86,10.0,SE,11.5,-,N/A,,Overcast,130,2012-12-09 01:15:00
7:55 PM,37.6,30.9,77,29.86,10.0,SE,12.7,-,N/A,,Overcast,140,2012-12-09 01:55:00
8:15 PM,37.8,31.1,77,29.87,10.0,SE,4.6,-,N/A,,Overcast,140,2012-12-09 02:15:00
8:35 PM,37.8,31.1,77,29.88,10.0,SE,6.9,-,N/A,,Overcast,140,2012-12-09 02:35:00
8:55 PM,37.6,31.1,77,29.87,10.0,SE,5.8,-,N/A,,Overcast,140,2012-12-09 02:55:00
9:15 PM,37.8,31.5,78,29.86,10.0,SE,6.9,-,N/A,,Overcast,130,2012-12-09 03:15:00
9:35 PM,37.8,31.6,79,29.88,10.0,SE,6.9,-,N/A,,Overcast,140,2012-12-09 03:35:00
9:55 PM,37.8,32.0,80,29.87,10.0,SE,11.5,-,N/A,,Overcast,140,2012-12-09 03:55:00
10:15 PM,37.9,32.0,79,29.87,10.0,SE,12.7,-,N/A,,Overcast,130,2012-12-09 04:15:00
10:35 PM,37.8,32.2,80,29.85,10.0,SE,15.0,19.6,N/A,,Overcast,140,2012-12-09 04:35:00
10:55 PM,37.6,32.4,81,29.84,10.0,SE,15.0,25.3,N/A,,Overcast,140,2012-12-09 04:55:00
11:15 PM,37.4,32.9,84,29.85,10.0,SE,11.5,18.4,N/A,,Overcast,140,2012-12-09 05:15:00
11:35 PM,37.4,33.4,86,29.84,10.0,SE,13.8,-,N/A,,Overcast,140,2012-12-09 05:35:00
11:55 PM,37.0,33.6,87,29.84,7.0,SE,11.5,-,N/A,,Overcast,140,2012-12-09 05:55:00